Hourly Data Report for October 01, 2014

All times are specified in Local Standard Time (LST). Add 1 hour to adjust for Daylight Saving Time where and when it is observed.

HALL BEACH A
NUNAVUT

68°46'33.000" N
81°14'33.000" W
9.10 m
2402354
71293
YUX

Download Data

Hourly Data (October 2014)
Hourly Data Report for October 1, 2014
Temp Definition
°C
Dew Point Temp Definition
°C
Rel Hum Definition
%
Wind Dir Definition
10's deg

Wind Spd Definition
km/h
Visibility Definition
km
Stn Press Definition
kPa
Hmdx Definition


Wind Chill Definition


Weather Definition


TIME
00:00 Legend Double Dagger -5.9 -8.0 85 32 30 16.1 100.96   -14 LegendNANA
01:00 Legend Double Dagger -6.1 -8.2 85 31 24 16.1 100.95   -14 LegendNANA
02:00 Legend Double Dagger -6.0 -8.5 83 32 35 16.1 100.94   -15 Snow
03:00 Legend Double Dagger -5.8 -8.1 84 32 34 16.1 100.95   -15 Snow
04:00 Legend Double Dagger -6.0 -7.7 88 31 32 16.1 100.96   -15 Snow
05:00 Legend Double Dagger -5.7 -7.5 87 31 28 16.1 100.95   -14 Snow
06:00 Legend Double Dagger -5.8 -7.5 88 30 26 16.1 101.01   -14 Snow
07:00 Legend Double Dagger -5.8 -8.4 82 31 28 16.1 101.02   -14 Snow
08:00 Legend Double Dagger -5.9 -7.6 88 31 21 16.1 101.04   -13 Snow
09:00 Legend Double Dagger -5.4 -8.3 80 31 18 16.1 101.05   -12 Snow
10:00 Legend Double Dagger -5.3 -8.6 78 31 24 16.1 101.07   -13 LegendNANA
11:00 Legend Double Dagger -5.2 -7.7 83 31 18 16.1 101.06   -11 LegendNANA
12:00 Legend Double Dagger -5.2 -7.7 83 32 18 12.9 101.07   -11 Snow
13:00 Legend Double Dagger -5.1 -7.4 84 31 17 16.1 101.11   -11 Snow
14:00 Legend Double Dagger -4.8 -8.1 78 32 24 16.1 101.14   -12 Snow
15:00 Legend Double Dagger -4.6 -8.8 73 35 21 16.1 101.15   -11 Snow
16:00 Legend Double Dagger -4.8 -7.8 80 31 13 16.1 101.18   -10 Snow
17:00 Legend Double Dagger -4.9 -7.5 82 30 11 16.1 101.19   -9 Snow
18:00 Legend Double Dagger -4.9 -6.7 87 31 13 16.1 101.21   -10 Snow
19:00 Legend Double Dagger -5.0 -8.4 77 32 18 16.1 101.25   -11 Snow
20:00 Legend Double Dagger -5.3 -8.9 76 32 21 16.1 101.25   -12 LegendNANA
21:00 Legend Double Dagger -7.7 -9.8 85 30 15 16.1 101.28   -14 LegendNANA
22:00 Legend Double Dagger -6.7 -9.1 83 30 15 16.1 101.27   -13 LegendNANA
23:00 Legend Double Dagger -8.0 -9.9 87 30 18 16.1 101.31   -15 LegendNANA

Notes on Data Quality.

Legend

  • E = Estimated
  • M = Missing
  • NA = Not Available
  • ‡ = Partner data that is not subject to review by the National Climate Archives
Date modified: